This is the latest recevied weather packets stored in our database for station/object N9NDF. If no packets are shown the sender has not sent any weather packets the latest 10 day(s).
| Time | Temp. | Humidity | Pressure | Rain* | Wind** | Luminosity | Snow |
|---|---|---|---|---|---|---|---|
| 1778088322 | 14.44° C | 42% | 993.7 hPa | 0 mm | - | 945 W/m² | - |
| 1778088262 | 14.44° C | 41% | 993.8 hPa | 0 mm | - | 523 W/m² | - |
| 1778088197 | 14.44° C | 42% | 993.8 hPa | 0 mm | - | 716 W/m² | - |
| 1778088138 | 14.44° C | 42% | 993.8 hPa | 0 mm | - | 1083 W/m² | - |
| 1778088079 | 14.44° C | 40% | 993.7 hPa | 0 mm | - | 1032 W/m² | - |
| 1778088014 | 15° C | 39% | 993.8 hPa | 0 mm | - | 1058 W/m² | - |
| 1778087954 | 14.44° C | 40% | 993.7 hPa | 0 mm | - | 981 W/m² | - |
| 1778087896 | 14.44° C | 41% | 993.9 hPa | 0 mm | - | 999 W/m² | - |
| 1778087879 | 14.44° C | 40% | 993.9 hPa | 0 mm | - | 1042 W/m² | - |
| 1778087774 | 14.44° C | 41% | 993.9 hPa | 0 mm | - | 1112 W/m² | - |
| 1778087714 | 14.44° C | 43% | 993.9 hPa | 0 mm | - | 1108 W/m² | - |
| 1778087654 | 14.44° C | 45% | 993.9 hPa | 0 mm | - | 1062 W/m² | - |
| 1778087591 | 14.44° C | 44% | 993.9 hPa | 0 mm | - | 1041 W/m² | - |
| 1778087531 | 14.44° C | 45% | 993.9 hPa | 0 mm | - | 862 W/m² | - |
| 1778087471 | 14.44° C | 43% | 993.9 hPa | 0 mm | - | 582 W/m² | - |
| 1778087412 | 14.44° C | 43% | 993.8 hPa | 0 mm | - | 643 W/m² | - |
| 1778087351 | 14.44° C | 42% | 993.8 hPa | 0 mm | - | 783 W/m² | - |
| 1778087291 | 14.44° C | 43% | 994 hPa | 0 mm | - | 356 W/m² | - |
| 1778087231 | 14.44° C | 44% | 993.9 hPa | 0 mm | - | 353 W/m² | - |
| 1778087171 | 14.44° C | 43% | 994 hPa | 0 mm | - | 336 W/m² | - |
| 1778087112 | 14.44° C | 42% | 994 hPa | 0 mm | - | 314 W/m² | - |
| 1778087051 | 14.44° C | 43% | 994 hPa | 0 mm | - | 303 W/m² | - |
| 1778086991 | 14.44° C | 43% | 994.1 hPa | 0 mm | - | 420 W/m² | - |
| 1778086928 | 13.89° C | 45% | 994 hPa | 0 mm | - | 830 W/m² | - |
| 1778086872 | 13.89° C | 42% | 993.9 hPa | 0 mm | - | 1063 W/m² | - |
* Rain latest hour (hover to see other rain measurements)
** Current wind speed in m/s (hover to see current wind gust speed)